TimeCDT,TemperatureF,Dew PointF,Humidity,Sea Level PressureIn,VisibilityMPH,Wind Direction,Wind SpeedMPH,Gust SpeedMPH,PrecipitationIn,Events,Conditions,WindDirDegrees,DateUTC
12:35 AM,64.2,57.7,79,30.05,10.0,SSE,3.5,-,N/A,,Clear,160,2013-08-20 05:35:00
12:55 AM,64.8,57.9,78,30.05,10.0,South,3.5,-,N/A,,Clear,180,2013-08-20 05:55:00
1:55 AM,63.7,58.3,83,30.05,10.0,Calm,Calm,-,N/A,,Clear,0,2013-08-20 06:55:00
2:35 AM,63.3,58.6,85,30.06,7.0,Calm,Calm,-,N/A,,Clear,0,2013-08-20 07:35:00
2:55 AM,62.8,59.0,87,30.06,7.0,SE,3.5,-,N/A,,Clear,140,2013-08-20 07:55:00
3:15 AM,62.8,59.4,89,30.06,5.0,SSE,3.5,-,N/A,,Scattered Clouds,160,2013-08-20 08:15:00
3:35 AM,63.0,59.9,90,30.06,5.0,SSE,3.5,-,N/A,,Overcast,150,2013-08-20 08:35:00
3:55 AM,63.1,59.9,89,30.06,5.0,SSE,3.5,-,N/A,,Overcast,160,2013-08-20 08:55:00
4:15 AM,64.4,60.8,88,30.06,7.0,South,5.8,-,N/A,,Scattered Clouds,170,2013-08-20 09:15:00
4:35 AM,64.4,60.4,87,30.06,7.0,South,5.8,-,N/A,,Clear,180,2013-08-20 09:35:00
4:55 AM,64.4,60.4,87,30.06,7.0,South,3.5,-,N/A,,Scattered Clouds,180,2013-08-20 09:55:00
5:15 AM,64.2,60.4,87,30.07,7.0,South,5.8,-,N/A,,Clear,180,2013-08-20 10:15:00
5:35 AM,63.9,60.6,89,30.07,7.0,South,6.9,-,N/A,,Clear,180,2013-08-20 10:35:00
5:55 AM,64.0,60.8,89,30.07,7.0,South,6.9,-,N/A,,Clear,180,2013-08-20 10:55:00
6:15 AM,64.4,60.8,88,30.08,7.0,South,6.9,-,N/A,,Clear,180,2013-08-20 11:15:00
6:35 AM,64.4,61.0,89,30.09,7.0,South,5.8,-,N/A,,Clear,190,2013-08-20 11:35:00
6:55 AM,64.9,61.5,89,30.09,7.0,South,5.8,-,N/A,,Scattered Clouds,180,2013-08-20 11:55:00
7:15 AM,66.4,62.2,86,30.09,7.0,South,6.9,-,N/A,,Mostly Cloudy,190,2013-08-20 12:15:00
7:35 AM,67.1,62.4,85,30.09,10.0,South,6.9,-,N/A,,Overcast,190,2013-08-20 12:35:00
7:55 AM,68.0,62.4,82,30.10,10.0,South,6.9,-,N/A,,Overcast,190,2013-08-20 12:55:00
8:15 AM,68.9,62.4,80,30.10,10.0,South,9.2,-,N/A,,Overcast,190,2013-08-20 13:15:00
8:35 AM,69.6,62.2,77,30.10,10.0,South,9.2,-,N/A,,Overcast,190,2013-08-20 13:35:00
8:55 AM,71.2,61.9,72,30.10,10.0,SSW,11.5,-,N/A,,Overcast,200,2013-08-20 13:55:00
9:15 AM,70.9,62.1,74,30.10,10.0,SSW,9.2,-,N/A,,Mostly Cloudy,200,2013-08-20 14:15:00
9:35 AM,73.0,62.2,69,30.10,10.0,SSW,12.7,-,N/A,,Mostly Cloudy,200,2013-08-20 14:35:00
9:55 AM,74.7,61.9,64,30.09,10.0,SSW,10.4,-,N/A,,Mostly Cloudy,200,2013-08-20 14:55:00
10:15 AM,76.1,61.7,61,30.10,10.0,SSW,11.5,-,N/A,,Scattered Clouds,210,2013-08-20 15:15:00
10:35 AM,77.2,61.7,59,30.09,10.0,SSW,12.7,-,N/A,,Clear,210,2013-08-20 15:35:00
10:55 AM,78.1,61.5,57,30.09,10.0,SSW,11.5,-,N/A,,Clear,200,2013-08-20 15:55:00
11:15 AM,79.2,61.3,54,30.09,10.0,South,15.0,-,N/A,,Clear,190,2013-08-20 16:15:00
11:35 AM,80.2,61.0,52,30.09,10.0,South,12.7,-,N/A,,Clear,180,2013-08-20 16:35:00
11:55 AM,81.1,59.9,48,30.09,10.0,South,12.7,17.3,N/A,,Clear,190,2013-08-20 16:55:00
12:15 PM,81.5,59.0,46,30.08,10.0,South,15.0,18.4,N/A,,Clear,180,2013-08-20 17:15:00
12:35 PM,81.9,57.7,44,30.08,10.0,South,16.1,-,N/A,,Clear,170,2013-08-20 17:35:00
12:55 PM,82.9,57.6,42,30.07,10.0,South,12.7,19.6,N/A,,Scattered Clouds,190,2013-08-20 17:55:00
1:15 PM,83.1,56.3,40,30.07,10.0,SSW,15.0,20.7,N/A,,Scattered Clouds,210,2013-08-20 18:15:00
1:35 PM,83.7,54.9,37,30.07,10.0,SSW,13.8,-,N/A,,Scattered Clouds,200,2013-08-20 18:35:00
1:55 PM,84.2,55.6,37,30.07,10.0,SSW,13.8,20.7,N/A,,Scattered Clouds,210,2013-08-20 18:55:00
2:15 PM,84.2,55.0,37,30.06,10.0,SSW,12.7,20.7,N/A,,Scattered Clouds,210,2013-08-20 19:15:00
2:35 PM,84.4,55.4,37,30.06,10.0,SSW,12.7,20.7,N/A,,Scattered Clouds,200,2013-08-20 19:35:00
2:55 PM,84.4,54.7,36,30.05,10.0,South,9.2,18.4,N/A,,Scattered Clouds,190,2013-08-20 19:55:00
3:15 PM,84.0,54.7,36,30.04,10.0,South,12.7,17.3,N/A,,Scattered Clouds,180,2013-08-20 20:15:00
3:35 PM,84.2,54.1,35,30.04,10.0,South,13.8,-,N/A,,Scattered Clouds,180,2013-08-20 20:35:00
3:55 PM,84.4,53.4,34,30.04,10.0,South,15.0,19.6,N/A,,Scattered Clouds,170,2013-08-20 20:55:00
4:15 PM,84.4,54.3,36,30.04,10.0,South,11.5,19.6,N/A,,Scattered Clouds,190,2013-08-20 21:15:00
4:35 PM,84.6,54.5,36,30.04,10.0,SSW,12.7,-,N/A,,Clear,210,2013-08-20 21:35:00
4:55 PM,84.2,54.7,36,30.03,10.0,SSW,15.0,-,N/A,,Clear,210,2013-08-20 21:55:00
5:15 PM,83.7,55.0,37,30.03,10.0,South,12.7,19.6,N/A,,Clear,190,2013-08-20 22:15:00
5:35 PM,83.3,54.7,37,30.04,10.0,South,11.5,-,N/A,,Clear,190,2013-08-20 22:35:00
5:55 PM,82.8,55.8,39,30.03,10.0,South,11.5,-,N/A,,Clear,190,2013-08-20 22:55:00
6:15 PM,81.9,56.1,41,30.03,10.0,SSW,10.4,-,N/A,,Clear,200,2013-08-20 23:15:00
6:35 PM,81.1,57.4,44,30.03,10.0,South,9.2,-,N/A,,Clear,190,2013-08-20 23:35:00
6:55 PM,80.2,57.2,45,30.03,10.0,South,9.2,-,N/A,,Clear,180,2013-08-20 23:55:00
7:15 PM,79.2,56.5,46,30.02,10.0,South,8.1,-,N/A,,Clear,180,2013-08-21 00:15:00
7:35 PM,77.7,56.7,48,30.02,10.0,South,8.1,-,N/A,,Clear,170,2013-08-21 00:35:00
7:55 PM,76.5,57.2,51,30.03,10.0,SSE,8.1,-,N/A,,Clear,160,2013-08-21 00:55:00
8:15 PM,75.2,58.6,56,30.03,10.0,SSE,8.1,-,N/A,,Clear,150,2013-08-21 01:15:00
8:35 PM,74.5,60.8,62,30.03,10.0,SSE,9.2,-,N/A,,Clear,160,2013-08-21 01:35:00
8:55 PM,74.1,61.5,65,30.04,10.0,SSE,8.1,-,N/A,,Clear,150,2013-08-21 01:55:00
9:15 PM,73.4,61.9,67,30.05,10.0,SSE,8.1,-,N/A,,Clear,160,2013-08-21 02:15:00
9:35 PM,72.7,62.6,71,30.05,7.0,SSE,8.1,-,N/A,,Clear,160,2013-08-21 02:35:00
9:55 PM,71.8,62.6,73,30.05,10.0,SSE,8.1,-,N/A,,Clear,150,2013-08-21 02:55:00
10:15 PM,71.2,62.6,74,30.05,10.0,SSE,8.1,-,N/A,,Clear,150,2013-08-21 03:15:00
10:35 PM,71.2,62.6,74,30.05,10.0,SSE,8.1,-,N/A,,Clear,160,2013-08-21 03:35:00
10:55 PM,71.1,62.6,75,30.05,10.0,SSE,8.1,-,N/A,,Scattered Clouds,160,2013-08-21 03:55:00
11:15 PM,71.2,62.2,73,30.05,10.0,SSE,8.1,-,N/A,,Mostly Cloudy,160,2013-08-21 04:15:00
11:35 PM,71.1,62.2,74,30.05,10.0,South,6.9,-,N/A,,Mostly Cloudy,180,2013-08-21 04:35:00
11:55 PM,71.2,62.1,73,30.05,10.0,South,8.1,-,N/A,,Overcast,180,2013-08-21 04:55:00